RH
72 85 89 90 93 90 92 91 87 86 77 71 82 86 82 77 68 64 62 66 68 69 74 76 79 74 73 74 73 74 75 80
64 66 70 65 80 81 84 82 80 77 77 83 87 74 70 72 69 74 68 62 59 67 72 73 75 72 75 76 80 79 73 81
56 58 64 72 75 79 73 73 71 76 84 83 81 79 70 71 64 60 59 64 63 58 68 72 76 75 75 79 83 83 85 90
62 58 59 58 60 62 55 58 58 65 72 72 66 67 71 70 71 67 62 63 62 65 69 77 80 81 84 87 90 90 92 91
56 57 57 54 58 54 50 49 50 51 54 56 57 63 67 78 77 65 62 65 64 67 72 78 82 85 88 90 88 96 96 98
60 58 57 58 57 55 54 51 49 50 52 57 68 71 75 80 69 62 61 67 72 70 72 70 75 83 87 87 90 90 92 94
64 60 58 60 63 60 56 53 55 56 58 63 71 69 74 65 62 65 65 69 74 73 67 75 82 83 85 87 88 86 89 92
61 56 60 65 70 68 61 62 66 66 67 68 68 64 60 59 58 61 60 70 78 76 79 82 83 82 82 84 85 88 91 92
64 66 70 69 64 58 55 57 58 59 60 62 64 58 64 62 61 65 75 82 82 82 82 76 74 76 81 86 86 88 88 90
65 68 69 68 68 68 64 56 55 57 60 66 67 67 69 74 76 83 83 84 75 82 74 74 79 76 76 83 85 84 90 91
67 67 64 60 61 65 67 67 62 63 66 72 69 75 75 78 83 80 79 75 68 69 78 84 68 65 69 80 85 86 90 94
66 64 58 56 57 55 62 65 61 59 62 68 76 77 76 78 80 78 75 73 72 73 73 66 62 61 66 70 74 78 89 88
60 58 55 54 51 47 48 52 49 53 58 64 67 70 71 79 79 77 75 71 71 75 77 76 67 61 63 67 70 79 74 72
64 58 56 48 43 42 43 46 46 47 48 55 61 69 79 87 86 68 67 75 79 84 82 73 64 60 62 67 73 72 69 70
62 61 50 40 40 42 43 45 48 48 48 56 73 82 82 75 71 75 78 82 90 91 88 70 62 60 62 67 67 68 70 68
59 61 47 38 42 42 42 45 46 49 49 60 73 84 84 82 83 84 86 89 88 92 74 59 63 62 63 67 65 71 72 73
55 55 44 39 40 39 39 42 46 50 51 63 70 73 81 88 90 92 88 91 94 61 71 66 72 58 73 69 71 76 71 71
57 59 42 42 41 41 42 41 46 50 54 66 72 76 83 86 87 94 94 93 78 74 65 70 70 71 74 74 80 78 84 88
61 53 41 43 42 41 43 42 47 52 57 72 73 77 79 82 88 89 91 93 92 70 76 76 78 78 80 82 86 82 92 89
Wind_Speed
7 10 8 10 9 11 9 6 5 3 3 5 3 4 5 5 4 5 7 6 7 6 5 6 5 4 6 5 4 3 2 2
9 11 7 12 11 10 6 6 2 3 4 3 4 3 3 3 5 7 6 5 6 6 5 5 5 5 4 4 3 4 4 5
12 12 12 10 9 8 8 7 5 4 3 2 2 1 2 4 3 4 5 5 5 6 5 5 6 4 6 6 5 4 2 4
7 9 8 8 9 7 6 6 6 6 6 3 3 2 2 1 2 2 5 5 6 7 6 5 6 5 4 4 6 7 4 3
7 7 7 8 5 4 4 4 4 3 3 2 2 3 2 1 2 1 3 6 6 5 5 6 5 4 5 4 5 3 3 4
8 8 8 5 4 4 2 2 2 1 1 3 2 3 3 3 3 4 4 5 6 6 5 4 4 3 4 5 5 5 3 1
6 6 6 4 5 5 4 4 5 5 5 5 5 6 5 4 2 3 2 1 3 3 3 3 4 4 4 3 2 3 2 1
7 7 7 7 7 6 5 7 8 7 8 8 8 7 6 5 5 4 4 3 1 4 4 4 3 4 3 2 2 2 1 1
7 8 8 7 7 7 7 8 7 6 6 5 5 6 4 4 5 4 5 3 3 4 1 2 6 2 3 2 1 1 1 2
10 9 7 6 6 6 6 6 5 4 3 3 4 5 6 6 7 5 3 1 2 3 1 5 2 5 2 1 1 3 2 3
8 6 5 4 6 6 7 6 6 6 7 6 6 6 6 7 6 5 3 4 4 6 3 6 5 3 4 2 3 3 5 3
7 5 5 6 5 7 7 7 7 5 5 5 6 6 7 7 5 5 6 2 2 2 2 3 7 6 4 4 5 6 4 3
6 6 5 5 6 5 6 4 4 3 3 4 5 6 6 7 6 4 4 3 3 1 4 7 7 6 5 5 5 2 1 2
5 4 5 6 4 4 5 3 1 1 3 4 5 6 6 7 5 3 5 6 7 5 5 6 7 6 4 3 3 1 1 3
4 4 6 5 4 4 3 1 0 2 3 4 5 5 5 5 4 6 6 5 5 5 7 7 5 6 3 2 2 1 5 5
5 4 5 4 5 4 3 2 2 1 3 3 5 5 6 6 6 7 5 5 5 6 6 5 5 3 1 3 4 5 5 6
3 1 5 5 6 5 4 5 5 2 3 5 6 6 6 7 6 6 5 5 5 5 5 4 5 2 4 7 4 4 5 6
4 5 7 7 7 7 7 6 3 3 5 6 6 6 6 6 6 6 6 5 3 6 4 2 2 1 3 6 9 3 6 6
6 6 6 7 5 4 5 4 4 4 6 6 6 6 7 6 6 6 5 4 5 4 3 3 3 4 7 5 5 6 5 6
Wind_Direction
37 61 64 77 71 79 74 63 60 36 10 76 58 48 45 48 51 45 29 17 37 53 44 28 23 28 21 11 8 348 309 319
62 61 68 78 60 62 63 95 51 99 60 38 27 52 26 38 37 28 46 61 57 61 58 46 32 46 24 13 341 344 329 355
71 81 77 68 87 96 77 93 82 78 78 84 106 138 78 65 55 48 49 60 48 61 54 46 46 38 21 20 25 341 327 18
80 83 81 77 72 95 114 125 128 128 136 103 56 67 89 73 57 30 15 33 43 41 45 50 45 49 40 31 19 18 332 331
128 111 92 104 123 137 111 95 87 85 111 102 142 177 176 39 66 56 20 38 39 57 51 59 73 64 59 58 55 48 27 18
132 128 141 145 141 133 139 110 65 43 24 37 46 49 45 62 54 38 7 37 34 38 74 102 78 84 91 82 65 55 66 81
148 125 138 93 36 31 31 41 35 14 44 43 66 88 105 83 35 24 23 355 185 191 111 106 125 126 107 90 69 51 31 352
134 96 66 60 44 35 67 66 54 56 71 67 81 101 124 170 211 209 214 242 217 168 166 179 155 112 98 102 68 21 15 337
85 90 90 76 74 76 81 86 92 90 97 124 153 175 202 236 247 252 263 241 209 132 204 57 35 240 154 167 153 237 279 319
90 82 83 81 78 72 77 86 88 61 28 353 317 291 278 277 298 295 283 125 122 183 106 29 247 269 240 204 259 279 261 261
102 107 131 104 63 63 52 53 50 14 357 343 320 319 312 291 280 262 217 201 176 148 149 229 257 260 288 263 269 264 253 270
120 120 92 77 69 63 63 59 58 30 11 353 1 336 326 318 284 241 223 232 146 205 332 323 271 250 231 255 254 261 266 290
126 131 110 88 86 77 81 76 67 21 355 7 350 314 320 315 287 340 11 345 33 0 255 249 249 255 246 255 284 310 310 319
124 109 134 133 133 118 102 79 53 320 16 12 358 350 347 338 323 190 168 195 232 259 316 286 263 269 282 264 221 190 275 270
161 160 168 152 135 134 137 160 315 356 3 17 6 337 306 282 241 235 241 262 296 302 287 274 278 283 279 182 158 196 255 265
180 170 179 153 150 172 190 225 269 276 357 332 301 286 273 277 274 272 287 285 298 283 286 276 299 286 172 161 215 250 279 285
191 177 169 188 191 207 225 241 248 249 291 277 287 305 299 284 286 289 273 283 287 263 272 336 295 101 191 211 230 290 304 298
233 242 203 205 207 212 229 240 254 279 284 279 288 292 288 289 284 284 285 290 307 298 336 111 81 354 279 292 313 312 311 309
240 220 221 218 217 243 261 262 277 292 276 270 285 287 289 293 294 276 263 260 267 296 125 105 77 31 37 26 11 341 313 304